Regional Weather Roundup
Issued by NWS Boston, MA

Home | Current Version | Previous Version | Text Only | Print | Product List | Glossary On
Versions: 1 2 3 4 5 6 7 8 9 10 11 12 13 14 15 16 17 18 19 20 21 22 23 24 25 26 27 28 29 30 31 32 33 34 35 36 37 38 39 40 41 42 43 44 45 46 47 48 49 50
000
ASUS41 KBOX 291410
RWRBOX

REGIONAL WEATHER ROUNDUP
NATIONAL WEATHER SERVICE TAUNTON MA
1000 AM EDT FRI JUL 29 2016

NOTE:  "FAIR" INDICATES FEW OR NO CLOUDS BELOW 12,000 FEET WITH NO
SIGNIFICANT WEATHER AND/OR OBSTRUCTIONS TO VISIBILITY.

MAZALL-291500-
EASTERN MASSACHUSETTS

CITY           SKY/WX    TMP DP  RH WIND       PRES   REMARKS
BOSTON         LGT RAIN  73  70  90 N8        29.87F
BEVERLY        CLOUDY    73  70  90 VRB7      29.87S
LAWRENCE       LGT RAIN  73  69  87 N10       29.90S
BEDFORD        LGT RAIN  73  66  78 NE3       29.87R
BLUE HILL        N/A     70  69  97 NE3       29.89R
NORWOOD        LGT RAIN  74  70  87 N3        29.87S
MARSHFIELD     CLOUDY    72  70  94 VRB6G12   29.87R
PLYMOUTH       LGT RAIN  73  68  84 N9        29.88R
TAUNTON        LGT RAIN  75  71  87 CALM      29.86R
NEW BEDFORD    LGT RAIN  74  70  87 N6        29.86R FOG
$$

MAZALL-291500-
CAPE COD AND THE ISLANDS

CITY           SKY/WX    TMP DP  RH WIND       PRES   REMARKS
FALMOUTH       NOT AVBL
HYANNIS        LGT RAIN  77  73  87 N7        29.85R
CHATHAM        CLOUDY    75  73  93 SE6       29.87R FOG
PROVINCETOWN   CLOUDY    72  70  93 NW8       29.87S
NANTUCKET      LGT RAIN  73  72  96 SE3       29.86R VSB 1/2
MARTHAS VNYRD  LGT RAIN  76  74  93 N5        29.86R FOG
$$

MAZALL-291500-
CENTRAL AND WESTERN MASSACHUSETTS

CITY           SKY/WX    TMP DP  RH WIND       PRES   REMARKS
WORCESTER      PTSUNNY   70  68  93 N6        29.91F
FITCHBURG      CLOUDY    74  67  78 CALM      29.91R
ORANGE         PTSUNNY   71  68  90 CALM      29.90S
SPRINGFIELD    PTSUNNY   73  70  89 NW3       29.87S
WESTFIELD      CLOUDY    74  69  85 N3        29.88F
NORTH ADAMS    CLOUDY    74  67  78 CALM      29.91S
PITTSFIELD     SUNNY     75  64  68 CALM      29.91S
$$

RIZALL-291500-
RHODE ISLAND

CITY           SKY/WX    TMP DP  RH WIND       PRES   REMARKS
PROVIDENCE     LGT RAIN  74  70  87 N7        29.87S FOG
NEWPORT        LGT RAIN  73  70  90 N9        29.86R FOG
BLOCK ISLAND   LGT RAIN  70  68  93 NE9G16    29.85S
SMITHFIELD     CLOUDY    72  70  94 N8        29.88F
WESTERLY       LGT RAIN  72  67  84 N9        29.86S
$$

CTZALL-291500-
CONNECTICUT

CITY           SKY/WX    TMP DP  RH WIND       PRES   REMARKS
BRADLEY INTL   LGT RAIN  74  70  87 N3        29.88F
HARTFORD       CLOUDY    76  71  85 NE7       29.87S
BRIDGEPORT     LGT RAIN  73  68  84 NE10      29.86S
DANBURY        PTSUNNY   72  68  87 NE5       29.89F
GROTON         LGT RAIN  72  67  84 N14       29.85R
NEW HAVEN      LGT RAIN  71  69  93 NE3       29.87R
CHESTER        LGT RAIN  70  68  94 NE6       29.89R
MERIDEN        CLOUDY    75  70  84 NE7       29.87S
WILLIMANTIC    CLOUDY    75  72  90 N5        29.89R
OXFORD         CLOUDY    72  66  83 E7        29.90S
$$

MEZ002-015-021-024-NHZ003-005-008-011-012-014-VTZ005-008-291500-
NORTHERN NEW ENGLAND

CITY           SKY/WX    TMP DP  RH WIND       PRES   REMARKS
PORTLAND ME    CLOUDY    74  67  78 N6        29.89S
BANGOR ME      PTSUNNY   80  63  55 NE10      29.91S
CONCORD NH     CLOUDY    72  68  87 NW5       29.90S
MANCHESTER NH  LGT RAIN  72  67  84 N6        29.88S
NASHUA NH      CLOUDY    72  70  93 N3        29.89S
PORTSMOUTH NH  LGT RAIN  72  67  85 NE6       29.86F
JAFFREY NH     CLOUDY    70  66  87 CALM      29.92F
KEENE NH       CLOUDY    72  69  90 CALM      29.90S
BURLINGTON VT  PTSUNNY   73  65  75 NW8       29.93S
MT. WASHINGTON CLOUDY    55  54  94 W6          N/A  VSB 1
$$

NYZ052-076-291500-
EASTERN NEW YORK

CITY           SKY/WX    TMP DP  RH WIND       PRES   REMARKS
ALBANY         PTSUNNY   76  67  73 N7        29.90S
NEW YORK CITY  LGT RAIN  72  68  87 NE12      29.84F
$$

ANZALL-291500-
MARINE OBSERVATIONS

STATION/POSITION TIME  TEMP    WIND        PRES    VSBY  WAVE
                       AIR SEA DIR/SP/G                  HT/PER
                 (UTC) (F)     (DEG/KT/KT) (MB)    (MI)  (FT/S)
BOSTON BUOY      1350   70 71   10/ 12/ 14 1011.2R         1/ 3
BUZZARDS BAY     1400   73      20/ 12/ 13 1011.0R
NANTUCKET SOUND  1350   73 75  120/  6/  8 1010.7R         1
MASS BAY-STELLWA 1304   69 69  360/ 10/ 12 1011.1R  1 7/8  1/ 3
ISLE OF SHOALS   1400   69      20/  9/  9 1011.5F
S OF BLOCK IS    1325      75                N/A           1/ 6
$$

......................KEY.........................
  SKY/WX - SKY CONDITION/PRESENT WEATHER
  TMP    - TEMPERATURE IN FAHRENHEIT
  DWPT   - DEWPOINT IN FAHRENHEIT
  RH     - RELATIVE HUMIDITY IN PERCENT
  WIND   - DIRECTION AND SPEED IN MPH
  PRES   - MEAN SEA LEVEL PRESSURE IN INCHES OF HG
  WCI    - WIND CHILL INDEX
  VSB    - VISIBILITY IN MILES
  HX     - HEAT INDEX
  TC     - TEMPERATURE IN CELSIUS
  VRB    - VARIABLE WIND DIRECTION
  N/A    - NOT AVAILABLE



USA.gov is the U.S. government's official web portal to all federal, state and local government web resources and services.